TimeFrame on Redefined Productions
Outwar Torax TimeFrame

Torax TimeFrame

95 Gods Updated: 2019-05-18 06:53:31
NameTime LeftWindow Opens
Old World Drake36d 07:302019-04-15 09:11:00
Skybrine The Inescapable1d 12:262019-05-20 04:15:00
Amalgamated Apparition1d 07:532019-05-20 08:48:00
Quiver, The Renegade1d 02:262019-05-20 14:15:00
Akkel the Enflamed Warrior1d 01:332019-05-20 15:08:00
Lacuste of the Swarm0d 20:072019-05-20 20:34:00
Jorun the Blazing Swordsman0d 17:252019-05-20 23:16:00
Ganja the Stone Golem0d 13:442019-05-21 02:57:00
Lady Ariella0d 06:472019-05-21 09:54:00
Straya, the Underworld Ruler0d 05:592019-05-21 10:42:00
Dreg nor, Keeper of the Infernal Essence0d 05:382019-05-21 11:03:00
Brutalitar, Lord of the Underworld0d 04:562019-05-21 11:45:00
King Ashnar, Lord of the Unliving0d 03:282019-05-21 13:13:00
Noxious Slug0d 02:582019-05-21 13:43:00
Hackerphage, Protector of the Gateway0d 02:022019-05-21 14:39:00
Rancid, Lord of Thugs0d 01:232019-05-21 15:18:00
Ebliss, Fallen Angel of Despair0d 01:192019-05-21 15:22:00
Garland, The Lord Keeper0d 00:202019-05-21 17:02:00
Sylvanna TorLai0d 00:262019-05-21 17:08:00
Lord Narada0d 03:022019-05-21 19:44:00
Varsanor, Master of Darkness0d 03:432019-05-21 20:25:00
Baron Mu, Dark Rider of the Undead0d 04:062019-05-21 20:48:00
Volgan the Living Ironbark0d 05:512019-05-21 22:33:00
Zertan, The Collector0d 07:202019-05-22 00:02:00
Tylos, The Lord Master0d 07:232019-05-22 00:05:00
Vitkros, Hydra of the Deep0d 08:362019-05-22 01:18:00
Gnorb0d 08:482019-05-22 01:30:00
Pinosis0d 08:492019-05-22 01:31:00
Synge, The Red Dragon0d 09:122019-05-22 01:54:00
Wanhiroeaz the Devourer0d 09:412019-05-22 02:23:00
Slashbrood, Devourer of the Blackness0d 09:472019-05-22 02:29:00
Esquin, the Kinetic Master0d 09:502019-05-22 02:32:00
Lord Xordam0d 10:002019-05-22 02:42:00
Beast of Cards0d 10:222019-05-22 03:04:00
Howldroid, Tormentor of the Pit0d 10:362019-05-22 03:18:00
Lady Chaos, Queen of the Abyss0d 10:502019-05-22 03:32:00
Shadow0d 11:252019-05-22 04:07:00
Kretok, Descendant of Nature0d 12:312019-05-22 05:13:00
Rotborn, Eater of the Dead0d 12:472019-05-22 05:29:00
Felroc, Overseer of Hellfire0d 13:002019-05-22 05:42:00
Freezebreed, The Frozen Manipulator0d 15:322019-05-22 08:14:00
Smoot the Yeti0d 15:482019-05-22 08:30:00
Murderface0d 15:572019-05-22 08:39:00
Terrance, Rebel of Rallis0d 16:372019-05-22 09:19:00
Lord Varan0d 16:402019-05-22 09:22:00
Emperor Neudeus, Controller of the Universe0d 19:502019-05-22 12:32:00
Numerocure, The Black Messenger of Evil0d 20:092019-05-22 12:51:00
Sarcrina the Astral Priestess0d 20:362019-05-22 13:18:00
Crane0d 20:442019-05-22 13:26:00
Tsort0d 23:552019-05-22 16:37:00
Nessam0d 23:572019-05-22 16:39:00
Zikkir the Dark Archer1d 00:002019-05-22 16:42:00
Ancient Magus Tarkin1d 00:552019-05-22 17:37:00
Nayark the Mummified Sorcerer1d 01:092019-05-22 17:51:00
Bloodchill the Grizzly1d 01:302019-05-22 18:12:00
Hyrak, Bringer of Nightmares1d 03:192019-05-22 20:01:00
Mistress of the Sword1d 03:252019-05-22 20:07:00
Melt Bane, The Forbidden Demon Dragon1d 08:252019-05-23 01:07:00
Samatha Dark-Soul1d 10:332019-05-23 03:15:00
The Emerald Assassin1d 11:442019-05-23 04:26:00
Crantos, Defender of Ultimation1d 13:122019-05-23 05:54:00
Nar Zhul, Slayer of All1d 13:322019-05-23 06:14:00
Q-SEC Commander1d 16:592019-05-23 09:41:00
Anguish1d 17:532019-05-23 10:35:00
Threk, King of Lords1d 18:252019-05-23 11:07:00
Lord Sibannac1d 21:242019-05-23 14:06:00
Traxodon the Plaguebringer1d 21:312019-05-23 14:13:00
Crolvak, the Fire Master1d 23:412019-05-23 16:23:00
Lord Suka2d 00:462019-05-23 17:28:00
Detox2d 01:442019-05-23 18:26:00
Viserion, the Necrodragon2d 02:522019-05-23 19:34:00
Karvaz, Lord of Alsayic2d 02:532019-05-23 19:35:00
Bolkor, the Holy Master2d 03:162019-05-23 19:58:00
Keeper of Nature2d 03:342019-05-23 20:16:00
Sigil, Lich of Woe2d 04:082019-05-23 20:50:00
Dlanod, the Crazed Chancellor2d 04:562019-05-23 21:38:00
Jazzmin, Maiden of Vitality2d 06:192019-05-23 23:01:00
Raiyar, the Shadow Master2d 09:272019-05-24 02:09:00
Archdevil Yirkon2d 09:362019-05-24 02:18:00
Grivvek, Protector of the Brood2d 09:422019-05-24 02:24:00
Balerion, Dragon of Dread2d 13:182019-05-24 06:00:00
Xynak, the Arcane Master3d 00:472019-05-24 17:29:00
Ag Nabak the Abomination3d 03:092019-05-24 19:51:00
Great Lord Ganeshan3d 11:222019-05-25 04:04:00
Gorganus of the Wood3d 11:242019-05-25 04:06:00
Windstrike The Vile3d 14:492019-05-25 07:31:00
Nafir, God of Desolation3d 17:082019-05-25 09:50:00
Skarthul the Avenged3d 19:572019-05-25 12:39:00
Anvilfist4d 02:422019-05-25 19:24:00
Ormsul the Putrid4d 11:572019-05-26 04:39:00
Kro Shuk, Doomslayer5d 12:372019-05-27 05:19:00
Jade Dragonite63d 22:082019-03-18 18:33:00
Animated Captain40d 20:032019-04-10 20:38:00
Shaik, Servant of Arkron31d 21:332019-04-19 19:08:00
Rook, Hand of Arkron31d 19:572019-04-19 20:44:00